Location: Marcé
(47.5801°N, 0.3280°W)
Time: 15:50:17
(UTC+01:00)

SR - Pass Details

Date: 30 November 2021
Orbit: 582 x 872 km, 66.7° (Epoch: 22 January)

Event Time Altitude Azimuth Distance (km) Brightness Sun altitude
Rises 00:31:58 0° 178° (S) 3,013 - -63.8°
Reaches altitude 10° 00:34:43 10° 163° (SSE) 2,054 - -63.9°
Maximum altitude 00:38:18 23° 112° (ESE) 1,349 - -64.0°
Drops below altitude 10° 00:41:44 10° 60° (ENE) 1,961 - -64.0°
Sets 00:44:17 0° 46° (NE) 2,842 - -64.0°
